Regional Weather Roundup
Issued by NWS

Home | Current Version | Previous Version | Text Only | Print | Product List | Glossary On
Versions: 1 2 3 4 5 6 7 8 9 10 11 12 13 14 15 16 17 18 19 20 21 22 23 24 25 26 27 28 29 30 31 32 33 34 35 36 37 38 39 40 41 42 43 44 45 46 47 48 49 50
000
ASUS44 KJAN 181810
RWRMS

MISSISSIPPI HOURLY WEATHER ROUNDUP
NATIONAL WEATHER SERVICE JACKSON MS
1200 PM CST THU JAN 18 2018

NOTE: "FAIR: INDICATES FEW OR NO CLOUDS BELOW 12,000 FEET WITH NO
SIGNIFICANT WEATHER AND/OR OBSTRUCTIONS TO VISIBILITY.

MSZ001>002-007>008-010>013-018>021-025>028-034>036-181900-
NORTHWEST MISSISSIPPI

CITY           SKY/WX    TMP DP  RH WIND       PRES   REMARKS
BATESVILLE     FAIR      31  11  44 CALM      30.57F
CLARKSDALE     SUNNY     32  18  55 S7        30.57F WCI  26
CLEVELAND      FAIR      29  19  68 S6        30.58F WCI  22
GREENWOOD      FAIR      32  14  47 S5        30.57F WCI  27
6HR MIN TEMP:  11; 6HR MAX TEMP:  32;

GREENVILLE     FAIR      29  16  58 CALM      30.57F
6HR MIN TEMP:  11; 6HR MAX TEMP:  30;

OLIVE BRANCH   SUNNY     30  16  55 S8        30.52F WCI  23
OXFORD         FAIR      32  10  40 CALM      30.56F
TUNICA           N/A     28  18  64 S6        30.56F WCI  22
WINONA         FAIR      32  11  42 CALM      30.54F
$$

MSZ003>006-009-014>017-022>024-029>033-037>039-181900-
NORTHEAST MISSISSIPPI

CITY           SKY/WX    TMP DP  RH WIND       PRES   REMARKS
ABERDEEN         N/A     36  27  69 SW9       30.57F WCI  29
COLUMBUS AFB   FAIR      32  16  51 NW3       30.55F
6HR MIN TEMP:  15; 6HR MAX TEMP:  32;

CORINTH        FAIR      32  12  43 CALM      30.53F
GOLDN TRIANGLE FAIR      33  12  41 N5        30.55F WCI  29
STARKVILLE     FAIR      32  12  43 NW5       30.56F WCI  27
TUPELO         FAIR      32  11  41 CALM      30.56F
6HR MIN TEMP:  11; 6HR MAX TEMP:  32;

$$

MSZ040-058-181900-
CENTRAL MISSISSIPPI

CITY           SKY/WX    TMP DP  RH WIND       PRES   REMARKS
JACKSON INTL   FAIR      33  11  39 VRB3      30.55F
6HR MIN TEMP:  12; 6HR MAX TEMP:  34;

JACKSON HAWKNS FAIR      34  15  46 W5        30.56F WCI  30
6HR MIN TEMP:  13; 6HR MAX TEMP:  34;

MADISON        FAIR      32  14  47 CALM      30.56F
MERIDIAN KEY   FAIR      36  10  34 N5        30.54F WCI  32
6HR MIN TEMP:  13; 6HR MAX TEMP:  37;

MERIDIAN NAS   FAIR      37   9  31 N9        30.54F WCI  30
6HR MIN TEMP:  12; 6HR MAX TEMP:  37;

RAYMOND          N/A     34  16  47 CALM      30.56F
VICKSBURG VKS  CLEAR     36  14  41 CALM      30.57F
$$

MSZ059>079-181900-
SOUTH MISSISSIPPI

CITY           SKY/WX    TMP DP  RH WIND       PRES   REMARKS
COLUMBIA       FAIR      36  10  35 CALM      30.59F
HATTIESBURG    FAIR      34  16  47 N7        30.57F WCI  28
6HR MIN TEMP:  15; 6HR MAX TEMP:  34;

LAUREL         FAIR      35  13  41 N3        30.56F
MCCOMB         FAIR      36  11  35 N5        30.53F WCI  32
6HR MIN TEMP:  17; 6HR MAX TEMP:  36;

NATCHEZ        FAIR      34  14  43 NE3       30.56F
6HR MIN TEMP:  10; 6HR MAX TEMP:  35;

PINE BELT      FAIR      35  13  40 VRB5      30.56F WCI  31
6HR MIN TEMP:  11; 6HR MAX TEMP:  35;

$$

MSZ080>082-181900-
COASTAL MISSISSIPPI

CITY           SKY/WX    TMP DP  RH WIND       PRES   REMARKS
BAY ST LOUIS   SUNNY     39  14  35 N10       30.55F WCI  32
BILOXI         FAIR      39  11  31 N8        30.53F WCI  34
6HR MIN TEMP:  20; 6HR MAX TEMP:  39;

PASCAGOULA     FAIR      39  10  30 N8        30.54F WCI  33
6HR MIN TEMP:  19; 6HR MAX TEMP:  39;

GULFPORT       FAIR      40  12  32 NE9       30.53F WCI  34
6HR MIN TEMP:  20; 6HR MAX TEMP:  40;

$$

LAZ007>009-015>016-023>026-181900-
NORTHEAST LOUISIANA

CITY           SKY/WX    TMP DP  RH WIND       PRES   REMARKS
BASTROP        FAIR      34  13  41 CALM      30.58F
TALLULAH/VBURG FAIR      31  18  58 E3        30.58F
6HR MIN TEMP:   9; 6HR MAX TEMP:  31;

VIDALIA        FAIR      34  17  50 MISG      30.57F
$$



USA.gov is the U.S. government's official web portal to all federal, state and local government web resources and services.